Tracking 35274 objects as of 11-Sep-2026
HD Live streaming from Space Station
objects crossing your sky now

SPACEBEENZ-12


SPACEBEENZ-12 is no longer on orbit


NORAD ID: 52028
Int'l Code: 2022-026W
Launch date: March 15, 2022
Source: New Zealand (NZ)
Launch site: Kodiak Island, Alaska (KODAK)
Decay date: 2023-12-13
Your satellite tracking list
Your tracking list is empty




NASA's NSSDC Master Catalog

Two Line Element Set (TLE):
1 52028U 22026W   23347.46466287  .15830390  26515-5  67302-3 0  9995
2 52028  97.4659   1.2799 0011572 234.8632 125.1585 16.42477335 97444
Source of the keplerian elements: AFSPC